Retour au catalogue

SL-8 DEB

ActifPO
NORAD 18276·DEBRIS·🇷🇺 Russia

Lancé Jun 23, 1987 depuis Plesetsk Cosmodrome

Loading…

Prochains Passages (prochaines 24 heures)

TLE

FraisSource: Space-Track

Époque: Sep 14, 2026, 09:52 UTC

1 18276U 87054D   26257.41178032  .00000167  00000-0  15266-3 0  9993
2 18276  82.9283 224.7514 0012501 311.9904 204.9017 13.77603973967752

Suivez SL-8 DEB en temps réel avec AllMySat

Download on the App Store